{"data":{"norad_id":64775,"intl_designator":"2025-147W","name":"STARLINK-34657","alt_names":[],"object_type":"PAYLOAD","status":"ACTIVE","operator":null,"country":"US","launch_date":"2025-07-08","launch_site_code":"AFETR","launch_vehicle":null,"mission":null,"orbit_class":"UNKNOWN","rcs_meters":null,"size_class":null,"mass_kg":null,"dimensions":null,"purposes":["comms"],"wikipedia_slug":null,"has_3d_model":false,"image_url":null,"decayed_at":null,"tle_current":{"epoch":"2026-09-20T22:32:44.727648Z","epoch_age_seconds":90013,"freshness":"FRESH","line1":"1 64775U 25147W   26263.93940657  .00020006  00000+0  60132-3 0  9992","line2":"2 64775  53.1619  51.6978 0004555  14.5521 345.5612 15.34411102 68708","mean_motion":15.34411102,"eccentricity":0.0004555,"inclination_deg":53.1619,"raan_deg":51.6978,"arg_perigee_deg":14.5521,"mean_anomaly_deg":345.5612,"bstar":0.00060132,"rev_number":6870,"period_min":93.847079060042,"perigee_km":459.55425522327,"apogee_km":465.78623062157,"semimajor_km":6840.8072429224,"source":"CELESTRAK","updated_at":"2026-09-21T09:00:35.440227Z"}}}